| time (UTC) | temp F | wind direction | speed knots | gust knots | rain 1hr in | rain 24hr in | rain mn in | humidity % | barometer mb |
| 20260509084619 | 56 | 56 | 0.0 | 0.0 | 0.00 | 0.00 | 0.00 | 86 | 1007.7 |
| 20260509084502 | 56 | 56 | 0.0 | 0.0 | 0.00 | 0.00 | 0.00 | 86 | 1007.7 |
| 20260509083046 | 56 | 34 | 0.0 | 0.0 | 0.00 | 0.00 | 0.00 | 85 | 1007.5 |
| 20260509081522 | 57 | 5 | 0.0 | 0.0 | 0.00 | 0.00 | 0.00 | 84 | 1008.0 |
| 20260509080024 | 57 | 355 | 0.0 | 0.0 | 0.00 | 0.00 | 0.00 | 83 | 1007.6 |
| 20260509074528 | 57 | 355 | 0.0 | 0.0 | 0.00 | 0.00 | 0.00 | 81 | 1007.7 |
| 20260509073031 | 57 | 355 | 0.0 | 0.0 | 0.00 | 0.00 | 0.00 | 80 | 1007.7 |
| 20260509071530 | 56 | 257 | 0.0 | 0.0 | 0.00 | 0.00 | 0.00 | 77 | 1007.7 |
| 20260509070046 | 56 | 252 | 0.0 | 0.0 | 0.00 | 0.00 | 0.00 | 78 | 1007.8 |
| 20260509064528 | 57 | 252 | 0.0 | 0.0 | 0.00 | 0.00 | 0.00 | 77 | 1008.0 |
| 20260509063010 | 57 | 252 | 0.0 | 0.0 | 0.00 | 0.00 | 0.00 | 76 | 1008.0 |
| 20260509061515 | 58 | 252 | 0.0 | 0.0 | 0.00 | 0.00 | 0.00 | 76 | 1008.0 |
| 20260509060014 | 58 | 252 | 0.0 | 0.0 | 0.00 | 0.00 | 0.00 | 74 | 1008.1 |
| 20260509054613 | 58 | 252 | 0.0 | 0.0 | 0.00 | 0.00 | 0.00 | 74 | 1008.4 |
| 20260509053106 | 58 | 252 | 0.0 | 0.0 | 0.00 | 0.00 | 0.00 | 74 | 1008.5 |
| 20260509051549 | 59 | 252 | 0.0 | 0.0 | 0.00 | 0.00 | 0.00 | 71 | 1008.3 |
| 20260509050040 | 59 | 252 | 0.0 | 0.0 | 0.00 | 0.00 | 0.00 | 71 | 1008.3 |
| 20260509044546 | 60 | 252 | 0.0 | 0.0 | 0.00 | 0.00 | 0.00 | 69 | 1008.2 |
| 20260509043038 | 60 | 252 | 0.0 | 0.0 | 0.00 | 0.00 | 0.00 | 67 | 1008.2 |
| 20260509041524 | 61 | 252 | 0.0 | 0.0 | 0.00 | 0.00 | 0.00 | 65 | 1008.3 |
| 20260509040014 | 62 | 252 | 0.0 | 0.0 | 0.00 | 0.00 | 0.00 | 64 | 1008.3 |
| 20260509034601 | 63 | 252 | 0.0 | 0.0 | 0.00 | 0.00 | 0.00 | 60 | 1008.3 |
| 20260509033056 | 63 | 252 | 0.0 | 0.0 | 0.00 | 0.00 | 0.00 | 56 | 1008.4 |
| 20260509031605 | 63 | 252 | 0.0 | 0.0 | 0.00 | 0.00 | 0.00 | 55 | 1008.5 |
| 20260509030036 | 64 | 252 | 0.0 | 0.0 | 0.00 | 0.00 | 0.00 | 54 | 1008.8 |
| 20260509024530 | 64 | 252 | 0.0 | 0.0 | 0.00 | 0.00 | 0.00 | 52 | 1008.9 |
| 20260509023016 | 64 | 167 | 0.0 | 0.0 | 0.00 | 0.00 | 0.00 | 56 | 1009.0 |
| 20260509021506 | 64 | 151 | 0.0 | 0.0 | 0.00 | 0.00 | 0.00 | 54 | 1009.0 |
| 20260509020053 | 64 | 151 | 0.0 | 0.0 | 0.00 | 0.00 | 0.00 | 55 | 1008.9 |
| 20260509014543 | 62 | 164 | 0.0 | 0.0 | 0.00 | 0.00 | 0.00 | 60 | 1008.9 |
| 20260509013023 | 63 | 164 | 0.0 | 0.0 | 0.00 | 0.00 | 0.00 | 59 | 1009.0 |
| 20260509011528 | 64 | 164 | 0.0 | 0.0 | 0.00 | 0.00 | 0.00 | 58 | 1008.8 |
| 20260509010018 | 65 | 164 | 0.0 | 0.0 | 0.00 | 0.00 | 0.00 | 54 | 1008.9 |
| 20260509004509 | 66 | 164 | 0.0 | 0.0 | 0.00 | 0.00 | 0.00 | 52 | 1009.0 |
| 20260509003104 | 67 | 164 | 0.0 | 0.0 | 0.00 | 0.00 | 0.00 | 49 | 1009.0 |
| 20260509001601 | 67 | 165 | 0.0 | 0.0 | 0.00 | 0.00 | 0.00 | 48 | 1009.1 |
| 20260509000054 | 68 | 146 | 0.0 | 0.0 | 0.00 | 0.00 | 0.00 | 47 | 1009.1 |
| 20260508234549 | 68 | 227 | 0.9 | 7.8 | 0.00 | 0.00 | 0.00 | 45 | 1009.2 |
| 20260508233032 | 69 | 180 | 0.0 | 3.5 | 0.00 | 0.00 | 0.00 | 45 | 1009.1 |
| 20260508231516 | 69 | 231 | 0.9 | 7.0 | 0.00 | 0.00 | 0.00 | 44 | 1009.2 |
| 20260508230004 | 70 | 157 | 0.0 | 7.0 | 0.00 | 0.00 | 0.00 | 44 | 1009.2 |
| 20260508224604 | 69 | 136 | 0.0 | 5.2 | 0.00 | 0.00 | 0.00 | 46 | 1009.1 |
| 20260508223102 | 70 | 232 | 0.0 | 7.8 | 0.00 | 0.00 | 0.00 | 44 | 1009.4 |
| 20260508221554 | 70 | 207 | 0.0 | 13.0 | 0.00 | 0.00 | 0.00 | 43 | 1009.3 |
| 20260508220124 | 70 | 214 | 0.9 | 10.4 | 0.00 | 0.00 | 0.00 | 43 | 1009.1 |
| 20260508214558 | 70 | 167 | 0.0 | 10.4 | 0.00 | 0.00 | 0.00 | 44 | 1009.0 |
| 20260508213037 | 71 | 186 | 1.7 | 7.0 | 0.00 | 0.00 | 0.00 | 42 | 1009.2 |
| 20260508211541 | 70 | 136 | 0.9 | 10.4 | 0.00 | 0.00 | 0.00 | 41 | 1009.3 |
| 20260508210019 | 71 | 153 | 0.0 | 8.7 | 0.00 | 0.00 | 0.00 | 43 | 1009.6 |
| 20260508204526 | 70 | 246 | 0.0 | 8.7 | 0.00 | 0.00 | 0.00 | 42 | 1009.9 |
| 20260508203018 | 71 | 244 | 1.7 | 8.7 | 0.00 | 0.00 | 0.00 | 41 | 1010.0 |
| 20260508201525 | 71 | 157 | 1.7 | 7.0 | 0.00 | 0.00 | 0.00 | 43 | 1010.2 |
| 20260508200017 | 71 | 194 | 0.9 | 6.1 | 0.00 | 0.00 | 0.00 | 41 | 1010.5 |
| 20260508194517 | 70 | 203 | 1.7 | 7.0 | 0.00 | 0.00 | 0.00 | 42 | 1010.9 |
| 20260508193005 | 70 | 221 | 1.7 | 6.1 | 0.00 | 0.00 | 0.00 | 40 | 1011.1 |
| 20260508191510 | 70 | 194 | 2.6 | 7.8 | 0.00 | 0.00 | 0.00 | 41 | 1011.3 |
| 20260508190012 | 71 | 189 | 0.0 | 6.1 | 0.00 | 0.00 | 0.00 | 43 | 1011.7 |
| 20260508184505 | 70 | 298 | 1.7 | 16.5 | 0.00 | 0.00 | 0.00 | 39 | 1011.9 |
| 20260508183004 | 70 | 138 | 1.7 | 7.8 | 0.00 | 0.00 | 0.00 | 42 | 1011.6 |
| 20260508181611 | 69 | 186 | 0.0 | 8.7 | 0.00 | 0.00 | 0.00 | 43 | 1011.4 |
| 20260508180002 | 69 | 236 | 0.9 | 7.0 | 0.00 | 0.00 | 0.00 | 42 | 1011.7 |
| 20260508174601 | 69 | 216 | 0.9 | 8.7 | 0.00 | 0.00 | 0.00 | 41 | 1012.0 |
| 20260508173042 | 68 | 238 | 0.0 | 7.8 | 0.00 | 0.00 | 0.00 | 44 | 1012.4 |
| 20260508171518 | 68 | 207 | 0.9 | 7.8 | 0.00 | 0.00 | 0.00 | 42 | 1012.9 |
| 20260508170013 | 68 | 150 | 0.9 | 6.1 | 0.00 | 0.00 | 0.00 | 43 | 1013.0 |
| 20260508164509 | 68 | 181 | 0.9 | 6.1 | 0.00 | 0.00 | 0.00 | 45 | 1013.4 |
| 20260508163002 | 68 | 234 | 0.0 | 6.1 | 0.00 | 0.00 | 0.00 | 46 | 1013.8 |
| 20260508161553 | 66 | 314 | 1.7 | 6.1 | 0.00 | 0.00 | 0.00 | 46 | 1014.0 |
| 20260508160052 | 66 | 149 | 0.0 | 7.0 | 0.00 | 0.00 | 0.00 | 47 | 1014.2 |
| 20260508154545 | 66 | 219 | 0.9 | 8.7 | 0.00 | 0.00 | 0.00 | 47 | 1014.4 |
| 20260508153033 | 65 | 271 | 0.0 | 7.8 | 0.00 | 0.00 | 0.00 | 48 | 1014.6 |
| 20260508151544 | 64 | 242 | 0.9 | 7.0 | 0.00 | 0.00 | 0.00 | 47 | 1014.9 |
| 20260508150037 | 64 | 225 | 0.0 | 4.3 | 0.00 | 0.00 | 0.00 | 50 | 1015.0 |
| 20260508144554 | 62 | 274 | 0.9 | 7.8 | 0.00 | 0.00 | 0.00 | 49 | 1015.3 |
| 20260508143040 | 62 | 221 | 1.7 | 11.3 | 0.00 | 0.00 | 0.00 | 50 | 1015.5 |
| 20260508141535 | 61 | 253 | 2.6 | 8.7 | 0.00 | 0.00 | 0.00 | 51 | 1015.5 |
| 20260508140044 | 60 | 254 | 2.6 | 11.3 | 0.00 | 0.00 | 0.00 | 53 | 1015.3 |
| 20260508134534 | 59 | 153 | 0.0 | 1.7 | 0.00 | 0.00 | 0.00 | 56 | 1015.4 |
| 20260508133032 | 58 | 248 | 0.0 | 4.3 | 0.00 | 0.00 | 0.00 | 56 | 1015.4 |
| 20260508131525 | 57 | 275 | 0.0 | 3.5 | 0.00 | 0.00 | 0.00 | 59 | 1015.4 |
| 20260508130015 | 56 | 240 | 0.0 | 4.3 | 0.00 | 0.00 | 0.00 | 60 | 1015.3 |
| 20260508124524 | 55 | 246 | 0.0 | 1.7 | 0.00 | 0.00 | 0.00 | 63 | 1015.3 |
| 20260508123029 | 52 | 238 | 0.0 | 0.9 | 0.00 | 0.00 | 0.00 | 73 | 1015.3 |
| 20260508121534 | 49 | 312 | 0.0 | 0.0 | 0.00 | 0.00 | 0.00 | 87 | 1015.3 |
| 20260508120043 | 45 | 321 | 0.0 | 0.0 | 0.00 | 0.00 | 0.00 | 93 | 1015.2 |
| 20260508114546 | 41 | 321 | 0.0 | 0.0 | 0.00 | 0.00 | 0.00 | 94 | 1015.1 |
| 20260508113016 | 40 | 321 | 0.0 | 0.0 | 0.00 | 0.00 | 0.00 | 94 | 1014.9 |
| 20260508111557 | 38 | 321 | 0.0 | 0.0 | 0.00 | 0.00 | 0.00 | 93 | 1014.9 |
| 20260508110056 | 38 | 321 | 0.0 | 0.0 | 0.00 | 0.00 | 0.00 | 93 | 1014.8 |
| 20260508104513 | 38 | 321 | 0.0 | 0.0 | 0.00 | 0.00 | 0.00 | 93 | 1014.7 |
| 20260508103058 | 38 | 321 | 0.0 | 0.0 | 0.00 | 0.00 | 0.00 | 93 | 1014.6 |
| 20260508101600 | 38 | 321 | 0.0 | 0.0 | 0.00 | 0.00 | 0.00 | 92 | 1014.6 |
| 20260508100052 | 38 | 321 | 0.0 | 0.0 | 0.00 | 0.00 | 0.00 | 92 | 1014.6 |
| 20260508094604 | 38 | 321 | 0.0 | 0.0 | 0.00 | 0.00 | 0.00 | 92 | 1014.6 |
| 20260508093045 | 38 | 321 | 0.0 | 0.0 | 0.00 | 0.00 | 0.00 | 92 | 1014.6 |
| 20260508091541 | 38 | 321 | 0.0 | 0.0 | 0.00 | 0.00 | 0.00 | 92 | 1014.7 |